{"data":{"norad_id":67827,"intl_designator":"2026-033G","name":"STARLINK-36289","alt_names":[],"object_type":"PAYLOAD","status":"ACTIVE","operator":null,"country":"US","launch_date":"2026-02-16","launch_site_code":"AFETR","launch_vehicle":null,"mission":null,"orbit_class":"UNKNOWN","rcs_meters":null,"size_class":null,"mass_kg":null,"dimensions":null,"purposes":["comms"],"wikipedia_slug":null,"has_3d_model":false,"image_url":null,"decayed_at":null,"tle_current":{"epoch":"2026-09-19T23:26:23.404128Z","epoch_age_seconds":111742,"freshness":"FRESH","line1":"1 67827U 26033G   26262.97665977  .00011644  00000+0  43182-3 0  9994","line2":"2 67827  42.9964 250.1837 0000846 317.0966  42.9819 15.27591338 34387","mean_motion":15.27591338,"eccentricity":8.46e-5,"inclination_deg":42.9964,"raan_deg":250.1837,"arg_perigee_deg":317.0966,"mean_anomaly_deg":42.9819,"bstar":0.00043182,"rev_number":3438,"period_min":94.266049052446,"perigee_km":482.43469272725,"apogee_km":483.59559967038,"semimajor_km":6861.1521461988,"source":"CELESTRAK","updated_at":"2026-09-20T09:00:43.668145Z"}}}